Time,TemperatureF,DewpointF,PressureIn,WindDirection,WindDirectionDegrees,WindSpeedMPH,WindSpeedGustMPH,Humidity,HourlyPrecipIn,Conditions,Clouds,dailyrainin,SoftwareType,DateUTC
2013-03-20 00:00:00,51.0,44.0,30.15,West,270,0.0,3.0,77,0.00,,,0.00,Weather View 32 v70,2013-03-20 04:00:00,
2013-03-20 00:05:00,51.0,44.0,30.15,West,270,0.0,3.0,77,0.00,,,0.00,Weather View 32 v70,2013-03-20 04:05:00,
2013-03-20 00:11:00,51.0,44.0,30.15,NE,45,0.0,3.0,77,0.00,,,0.00,Weather View 32 v70,2013-03-20 04:11:00,
2013-03-20 00:15:00,51.0,44.0,30.15,West,270,0.0,3.0,77,0.00,,,0.00,Weather View 32 v70,2013-03-20 04:15:00,
2013-03-20 00:20:00,50.0,43.1,30.15,SE,135,0.0,2.0,77,0.00,,,0.00,Weather View 32 v70,2013-03-20 04:20:00,
2013-03-20 00:26:00,50.0,43.1,30.15,East,90,0.0,2.0,77,0.00,,,0.00,Weather View 32 v70,2013-03-20 04:26:00,
2013-03-20 00:31:00,50.0,43.1,30.15,East,90,0.0,2.0,77,0.00,,,0.00,Weather View 32 v70,2013-03-20 04:31:00,
2013-03-20 00:36:00,50.0,43.1,30.15,East,90,0.0,2.0,77,0.00,,,0.00,Weather View 32 v70,2013-03-20 04:36:00,
2013-03-20 00:46:00,49.0,42.1,30.16,East,90,0.0,0.0,77,0.00,,,0.00,Weather View 32 v70,2013-03-20 04:46:00,
2013-03-20 00:51:00,49.0,42.1,30.16,East,90,0.0,0.0,77,0.00,,,0.00,Weather View 32 v70,2013-03-20 04:51:00,
2013-03-20 00:56:00,49.0,42.1,30.15,East,90,0.0,0.0,77,0.00,,,0.00,Weather View 32 v70,2013-03-20 04:56:00,
2013-03-20 01:05:00,48.0,41.1,30.16,East,90,0.0,0.0,77,0.00,,,0.00,Weather View 32 v70,2013-03-20 05:05:00,
2013-03-20 01:10:00,48.0,41.1,30.16,East,90,0.0,0.0,77,0.00,,,0.00,Weather View 32 v70,2013-03-20 05:10:00,
2013-03-20 01:15:00,48.0,41.1,30.16,East,90,0.0,0.0,77,0.00,,,0.00,Weather View 32 v70,2013-03-20 05:15:00,
2013-03-20 01:20:00,48.0,41.1,30.16,West,270,0.0,0.0,77,0.00,,,0.00,Weather View 32 v70,2013-03-20 05:20:00,
2013-03-20 01:25:00,47.0,39.8,30.16,NW,315,0.0,3.0,76,0.00,,,0.00,Weather View 32 v70,2013-03-20 05:25:00,
2013-03-20 01:30:00,47.0,39.8,30.16,NW,315,0.0,3.0,76,0.00,,,0.00,Weather View 32 v70,2013-03-20 05:30:00,
2013-03-20 01:35:00,47.0,39.8,30.16,West,270,0.0,3.0,76,0.00,,,0.00,Weather View 32 v70,2013-03-20 05:35:00,
2013-03-20 01:41:00,47.0,39.8,30.16,NE,45,0.0,3.0,76,0.00,,,0.00,Weather View 32 v70,2013-03-20 05:41:00,
2013-03-20 01:46:00,47.0,39.8,30.16,SW,225,0.0,3.0,76,0.00,,,0.00,Weather View 32 v70,2013-03-20 05:46:00,
2013-03-20 01:51:00,47.0,39.8,30.16,West,270,0.0,3.0,76,0.00,,,0.00,Weather View 32 v70,2013-03-20 05:51:00,
2013-03-20 01:56:00,47.0,39.8,30.16,West,270,0.0,3.0,76,0.00,,,0.00,Weather View 32 v70,2013-03-20 05:56:00,
2013-03-20 02:01:00,47.0,39.8,30.16,WSW,247,0.0,3.0,76,0.00,,,0.00,Weather View 32 v70,2013-03-20 06:01:00,
2013-03-20 02:11:00,47.0,39.8,30.16,SE,135,0.0,3.0,76,0.00,,,0.00,Weather View 32 v70,2013-03-20 06:11:00,
2013-03-20 02:21:00,47.0,39.8,30.16,West,270,0.0,3.0,76,0.00,,,0.00,Weather View 32 v70,2013-03-20 06:21:00,
2013-03-20 02:26:00,47.0,39.8,30.16,West,270,0.0,2.0,76,0.00,,,0.00,Weather View 32 v70,2013-03-20 06:26:00,
2013-03-20 02:35:00,47.0,39.8,30.16,SE,135,0.0,0.0,76,0.00,,,0.00,Weather View 32 v70,2013-03-20 06:35:00,
2013-03-20 02:40:00,47.0,39.8,30.16,SE,135,0.0,0.0,76,0.00,,,0.00,Weather View 32 v70,2013-03-20 06:40:00,
2013-03-20 02:45:00,47.0,39.8,30.17,SE,135,0.0,0.0,76,0.00,,,0.00,Weather View 32 v70,2013-03-20 06:45:00,
2013-03-20 02:50:00,47.0,39.8,30.17,SE,135,0.0,0.0,76,0.00,,,0.00,Weather View 32 v70,2013-03-20 06:50:00,
2013-03-20 02:55:00,46.0,38.8,30.16,SE,135,0.0,0.0,76,0.00,,,0.00,Weather View 32 v70,2013-03-20 06:55:00,
2013-03-20 03:00:00,46.0,38.8,30.16,SE,135,0.0,0.0,76,0.00,,,0.00,Weather View 32 v70,2013-03-20 07:00:00,
2013-03-20 03:05:00,46.0,38.8,30.17,SE,135,0.0,0.0,76,0.00,,,0.00,Weather View 32 v70,2013-03-20 07:05:00,
2013-03-20 03:11:00,46.0,38.8,30.17,SE,135,0.0,0.0,76,0.00,,,0.00,Weather View 32 v70,2013-03-20 07:11:00,
2013-03-20 03:16:00,45.0,37.9,30.17,SE,135,0.0,0.0,76,0.00,,,0.00,Weather View 32 v70,2013-03-20 07:16:00,
2013-03-20 03:21:00,45.0,37.9,30.17,SE,135,0.0,0.0,76,0.00,,,0.00,Weather View 32 v70,2013-03-20 07:21:00,
2013-03-20 03:30:00,44.0,36.9,30.17,SE,135,0.0,0.0,76,0.00,,,0.00,Weather View 32 v70,2013-03-20 07:30:00,
2013-03-20 03:35:00,44.0,36.9,30.17,SE,135,0.0,0.0,76,0.00,,,0.00,Weather View 32 v70,2013-03-20 07:35:00,
2013-03-20 03:40:00,44.0,36.9,30.17,SE,135,0.0,0.0,76,0.00,,,0.00,Weather View 32 v70,2013-03-20 07:40:00,
2013-03-20 03:45:00,44.0,36.9,30.17,SE,135,0.0,0.0,76,0.00,,,0.00,Weather View 32 v70,2013-03-20 07:45:00,
2013-03-20 03:50:00,43.0,35.9,30.17,SE,135,0.0,0.0,76,0.00,,,0.00,Weather View 32 v70,2013-03-20 07:50:00,
2013-03-20 03:55:00,43.0,35.9,30.17,SE,135,0.0,0.0,76,0.00,,,0.00,Weather View 32 v70,2013-03-20 07:55:00,
2013-03-20 04:00:00,43.0,35.9,30.17,SE,135,0.0,0.0,76,0.00,,,0.00,Weather View 32 v70,2013-03-20 08:00:00,
2013-03-20 04:05:00,42.0,34.6,30.17,SE,135,0.0,0.0,75,0.00,,,0.00,Weather View 32 v70,2013-03-20 08:05:00,
2013-03-20 04:11:00,42.0,34.6,30.17,SE,135,0.0,0.0,75,0.00,,,0.00,Weather View 32 v70,2013-03-20 08:11:00,
2013-03-20 04:16:00,42.0,34.6,30.18,SE,135,0.0,0.0,75,0.00,,,0.00,Weather View 32 v70,2013-03-20 08:16:00,
2013-03-20 04:21:00,41.0,33.7,30.18,SE,135,0.0,0.0,75,0.00,,,0.00,Weather View 32 v70,2013-03-20 08:21:00,
2013-03-20 04:26:00,41.0,33.7,30.18,SE,135,0.0,0.0,75,0.00,,,0.00,Weather View 32 v70,2013-03-20 08:26:00,
2013-03-20 04:31:00,41.0,33.7,30.18,SE,135,0.0,0.0,75,0.00,,,0.00,Weather View 32 v70,2013-03-20 08:31:00,
2013-03-20 04:40:00,40.0,32.7,30.19,SE,135,0.0,0.0,75,0.00,,,0.00,Weather View 32 v70,2013-03-20 08:40:00,
2013-03-20 04:45:00,40.0,32.7,30.18,SE,135,0.0,0.0,75,0.00,,,0.00,Weather View 32 v70,2013-03-20 08:45:00,
2013-03-20 04:50:00,40.0,32.7,30.18,SE,135,0.0,0.0,75,0.00,,,0.00,Weather View 32 v70,2013-03-20 08:50:00,
2013-03-20 04:55:00,40.0,32.7,30.18,SE,135,0.0,0.0,75,0.00,,,0.00,Weather View 32 v70,2013-03-20 08:55:00,
2013-03-20 05:00:00,40.0,32.7,30.18,SE,135,0.0,0.0,75,0.00,,,0.00,Weather View 32 v70,2013-03-20 09:00:00,
2013-03-20 05:05:00,39.0,31.7,30.18,SE,135,0.0,0.0,75,0.00,,,0.00,Weather View 32 v70,2013-03-20 09:05:00,
2013-03-20 05:10:00,39.0,31.7,30.18,SE,135,0.0,0.0,75,0.00,,,0.00,Weather View 32 v70,2013-03-20 09:10:00,
2013-03-20 05:15:00,39.0,31.7,30.19,SE,135,0.0,0.0,75,0.00,,,0.00,Weather View 32 v70,2013-03-20 09:15:00,
2013-03-20 05:21:00,39.0,31.7,30.19,SE,135,0.0,0.0,75,0.00,,,0.00,Weather View 32 v70,2013-03-20 09:21:00,
2013-03-20 05:26:00,39.0,31.7,30.20,SE,135,0.0,0.0,75,0.00,,,0.00,Weather View 32 v70,2013-03-20 09:26:00,
2013-03-20 05:31:00,39.0,31.7,30.20,SE,135,0.0,0.0,75,0.00,,,0.00,Weather View 32 v70,2013-03-20 09:31:00,
2013-03-20 05:36:00,39.0,31.7,30.20,SE,135,0.0,0.0,75,0.00,,,0.00,Weather View 32 v70,2013-03-20 09:36:00,
2013-03-20 05:45:00,38.0,30.8,30.20,SE,135,0.0,0.0,75,0.00,,,0.00,Weather View 32 v70,2013-03-20 09:45:00,
2013-03-20 05:51:00,38.0,30.8,30.20,SE,135,0.0,0.0,75,0.00,,,0.00,Weather View 32 v70,2013-03-20 09:51:00,
2013-03-20 06:01:00,38.0,30.8,30.20,SE,135,0.0,0.0,75,0.00,,,0.00,Weather View 32 v70,2013-03-20 10:01:00,
2013-03-20 06:11:00,38.0,30.8,30.20,SE,135,0.0,0.0,75,0.00,,,0.00,Weather View 32 v70,2013-03-20 10:11:00,
2013-03-20 06:20:00,38.0,30.8,30.21,NE,45,0.0,0.0,75,0.00,,,0.00,Weather View 32 v70,2013-03-20 10:20:00,
2013-03-20 06:25:00,38.0,30.8,30.22,NE,45,0.0,0.0,75,0.00,,,0.00,Weather View 32 v70,2013-03-20 10:25:00,
2013-03-20 06:30:00,38.0,30.8,30.22,NE,45,0.0,0.0,75,0.00,,,0.00,Weather View 32 v70,2013-03-20 10:30:00,
2013-03-20 06:35:00,38.0,30.8,30.22,NE,45,0.0,0.0,75,0.00,,,0.00,Weather View 32 v70,2013-03-20 10:35:00,
2013-03-20 06:40:00,38.0,30.8,30.22,NE,45,0.0,0.0,75,0.00,,,0.00,Weather View 32 v70,2013-03-20 10:40:00,
2013-03-20 06:45:00,38.0,30.8,30.22,NE,45,0.0,0.0,75,0.00,,,0.00,Weather View 32 v70,2013-03-20 10:45:00,
2013-03-20 06:50:00,38.0,30.8,30.22,NE,45,0.0,0.0,75,0.00,,,0.00,Weather View 32 v70,2013-03-20 10:50:00,
2013-03-20 06:55:00,38.0,30.8,30.23,NE,45,0.0,0.0,75,0.00,,,0.00,Weather View 32 v70,2013-03-20 10:55:00,
2013-03-20 07:00:00,38.0,30.8,30.23,NE,45,0.0,0.0,75,0.00,,,0.00,Weather View 32 v70,2013-03-20 11:00:00,
2013-03-20 07:05:00,38.0,30.8,30.23,NE,45,0.0,0.0,75,0.00,,,0.00,Weather View 32 v70,2013-03-20 11:05:00,
2013-03-20 07:11:00,37.0,30.1,30.23,NE,45,0.0,0.0,76,0.00,,,0.00,Weather View 32 v70,2013-03-20 11:11:00,
2013-03-20 07:16:00,37.0,30.1,30.23,NE,45,0.0,0.0,76,0.00,,,0.00,Weather View 32 v70,2013-03-20 11:16:00,
2013-03-20 07:21:00,37.0,30.1,30.23,NE,45,0.0,0.0,76,0.00,,,0.00,Weather View 32 v70,2013-03-20 11:21:00,
2013-03-20 07:26:00,37.0,30.1,30.24,NE,45,0.0,0.0,76,0.00,,,0.00,Weather View 32 v70,2013-03-20 11:26:00,
2013-03-20 07:35:00,37.0,30.1,30.24,NE,45,0.0,0.0,76,0.00,,,0.00,Weather View 32 v70,2013-03-20 11:35:00,
2013-03-20 07:40:00,37.0,30.1,30.24,NE,45,0.0,0.0,76,0.00,,,0.00,Weather View 32 v70,2013-03-20 11:40:00,
2013-03-20 07:45:00,37.0,30.1,30.24,NE,45,0.0,0.0,76,0.00,,,0.00,Weather View 32 v70,2013-03-20 11:45:00,
2013-03-20 07:50:00,37.0,30.1,30.24,NE,45,0.0,0.0,76,0.00,,,0.00,Weather View 32 v70,2013-03-20 11:50:00,
2013-03-20 07:55:00,37.0,30.1,30.25,NE,45,0.0,0.0,76,0.00,,,0.00,Weather View 32 v70,2013-03-20 11:55:00,
2013-03-20 08:00:00,37.0,30.1,30.25,NE,45,0.0,0.0,76,0.00,,,0.00,Weather View 32 v70,2013-03-20 12:00:00,
2013-03-20 08:05:00,37.0,30.1,30.26,NE,45,0.0,0.0,76,0.00,,,0.00,Weather View 32 v70,2013-03-20 12:05:00,
2013-03-20 08:10:00,37.0,30.1,30.26,NE,45,0.0,0.0,76,0.00,,,0.00,Weather View 32 v70,2013-03-20 12:10:00,
2013-03-20 08:16:00,37.0,30.1,30.25,NE,45,0.0,0.0,76,0.00,,,0.00,Weather View 32 v70,2013-03-20 12:16:00,
2013-03-20 08:26:00,38.0,30.8,30.25,NE,45,0.0,0.0,75,0.00,,,0.00,Weather View 32 v70,2013-03-20 12:26:00,
2013-03-20 08:31:00,38.0,30.8,30.25,NE,45,0.0,0.0,75,0.00,,,0.00,Weather View 32 v70,2013-03-20 12:31:00,
2013-03-20 08:40:00,39.0,31.7,30.26,West,270,0.0,0.0,75,0.00,,,0.00,Weather View 32 v70,2013-03-20 12:40:00,
2013-03-20 08:45:00,39.0,31.7,30.26,West,270,0.0,0.0,75,0.00,,,0.00,Weather View 32 v70,2013-03-20 12:45:00,
2013-03-20 08:50:00,40.0,32.7,30.26,West,270,0.0,0.0,75,0.00,,,0.00,Weather View 32 v70,2013-03-20 12:50:00,
2013-03-20 08:55:00,40.0,32.7,30.25,West,270,0.0,0.0,75,0.00,,,0.00,Weather View 32 v70,2013-03-20 12:55:00,
2013-03-20 09:00:00,40.0,32.7,30.25,West,270,0.0,0.0,75,0.00,,,0.00,Weather View 32 v70,2013-03-20 13:00:00,
2013-03-20 09:06:00,41.0,33.7,30.26,West,270,0.0,0.0,75,0.00,,,0.00,Weather View 32 v70,2013-03-20 13:06:00,
2013-03-20 09:11:00,41.0,33.7,30.26,West,270,0.0,0.0,75,0.00,,,0.00,Weather View 32 v70,2013-03-20 13:11:00,
2013-03-20 09:16:00,42.0,34.6,30.26,West,270,0.0,0.0,75,0.00,,,0.00,Weather View 32 v70,2013-03-20 13:16:00,
2013-03-20 09:21:00,42.0,34.6,30.26,West,270,0.0,0.0,75,0.00,,,0.00,Weather View 32 v70,2013-03-20 13:21:00,
2013-03-20 09:26:00,43.0,35.9,30.26,NW,315,0.0,0.0,76,0.00,,,0.00,Weather View 32 v70,2013-03-20 13:26:00,
2013-03-20 09:35:00,44.0,36.9,30.26,West,270,0.0,0.0,76,0.00,,,0.00,Weather View 32 v70,2013-03-20 13:35:00,
2013-03-20 09:40:00,44.0,36.9,30.26,West,270,0.0,0.0,76,0.00,,,0.00,Weather View 32 v70,2013-03-20 13:40:00,
2013-03-20 09:45:00,45.0,37.9,30.25,NW,315,0.0,0.0,76,0.00,,,0.00,Weather View 32 v70,2013-03-20 13:45:00,
2013-03-20 09:50:00,46.0,38.8,30.25,East,90,0.0,0.0,76,0.00,,,0.00,Weather View 32 v70,2013-03-20 13:50:00,
2013-03-20 09:55:00,47.0,39.8,30.24,SE,135,0.0,0.0,76,0.00,,,0.00,Weather View 32 v70,2013-03-20 13:55:00,
2013-03-20 10:01:00,47.0,39.8,30.24,WNW,292,0.0,0.0,76,0.00,,,0.00,Weather View 32 v70,2013-03-20 14:01:00,
2013-03-20 10:06:00,48.0,41.1,30.25,West,270,0.0,0.0,77,0.00,,,0.00,Weather View 32 v70,2013-03-20 14:06:00,
2013-03-20 10:11:00,49.0,42.1,30.25,West,270,0.0,0.0,77,0.00,,,0.00,Weather View 32 v70,2013-03-20 14:11:00,
2013-03-20 10:16:00,49.0,42.1,30.24,East,90,0.0,0.0,77,0.00,,,0.00,Weather View 32 v70,2013-03-20 14:16:00,
2013-03-20 10:21:00,50.0,43.1,30.24,West,270,0.0,0.0,77,0.00,,,0.00,Weather View 32 v70,2013-03-20 14:21:00,
2013-03-20 10:30:00,50.0,43.1,30.24,West,270,0.0,3.0,77,0.00,,,0.00,Weather View 32 v70,2013-03-20 14:30:00,
2013-03-20 10:36:00,51.0,44.0,30.24,West,270,0.0,3.0,77,0.00,,,0.00,Weather View 32 v70,2013-03-20 14:36:00,
2013-03-20 10:45:00,51.0,44.0,30.24,NW,315,0.0,3.0,77,0.00,,,0.00,Weather View 32 v70,2013-03-20 14:45:00,
2013-03-20 10:50:00,51.0,44.0,30.24,West,270,0.0,3.0,77,0.00,,,0.00,Weather View 32 v70,2013-03-20 14:50:00,
2013-03-20 10:55:00,51.0,44.0,30.24,West,270,0.0,3.0,77,0.00,,,0.00,Weather View 32 v70,2013-03-20 14:55:00,
2013-03-20 11:00:00,51.0,44.0,30.24,South,180,0.0,3.0,77,0.00,,,0.00,Weather View 32 v70,2013-03-20 15:00:00,
2013-03-20 11:11:00,51.0,44.0,30.23,ENE,67,0.0,3.0,77,0.00,,,0.00,Weather View 32 v70,2013-03-20 15:11:00,
2013-03-20 11:21:00,51.0,44.0,30.24,North,360,0.0,3.0,77,0.00,,,0.00,Weather View 32 v70,2013-03-20 15:21:00,
2013-03-20 11:31:00,51.0,44.0,30.23,West,270,0.0,0.0,77,0.00,,,0.00,Weather View 32 v70,2013-03-20 15:31:00,
2013-03-20 11:40:00,51.0,44.0,30.23,NW,315,0.0,0.0,77,0.00,,,0.00,Weather View 32 v70,2013-03-20 15:40:00,
2013-03-20 11:45:00,51.0,44.0,30.22,NE,45,0.0,0.0,77,0.00,,,0.00,Weather View 32 v70,2013-03-20 15:45:00,
2013-03-20 11:50:00,51.0,44.0,30.22,NE,45,0.0,0.0,77,0.00,,,0.00,Weather View 32 v70,2013-03-20 15:50:00,
2013-03-20 11:55:00,52.0,45.0,30.22,SW,225,0.0,0.0,77,0.00,,,0.00,Weather View 32 v70,2013-03-20 15:55:00,
2013-03-20 12:00:00,52.0,45.0,30.22,SE,135,0.0,2.0,77,0.00,,,0.00,Weather View 32 v70,2013-03-20 16:00:00,
2013-03-20 12:05:00,53.0,46.0,30.21,NW,315,0.0,2.0,77,0.00,,,0.00,Weather View 32 v70,2013-03-20 16:05:00,
2013-03-20 12:10:00,54.0,47.3,30.21,NW,315,0.0,2.0,78,0.00,,,0.00,Weather View 32 v70,2013-03-20 16:10:00,
2013-03-20 12:16:00,54.0,47.3,30.20,NNW,337,0.0,3.0,78,0.00,,,0.00,Weather View 32 v70,2013-03-20 16:16:00,
2013-03-20 12:25:00,55.0,48.3,30.19,SW,225,0.0,3.0,78,0.00,,,0.00,Weather View 32 v70,2013-03-20 16:25:00,
2013-03-20 12:30:00,55.0,48.3,30.19,NW,315,0.0,3.0,78,0.00,,,0.00,Weather View 32 v70,2013-03-20 16:30:00,
2013-03-20 12:35:00,56.0,49.2,30.19,South,180,0.0,3.0,78,0.00,,,0.00,Weather View 32 v70,2013-03-20 16:35:00,
2013-03-20 12:40:00,56.0,49.2,30.19,SE,135,0.0,3.0,78,0.00,,,0.00,Weather View 32 v70,2013-03-20 16:40:00,
2013-03-20 12:46:00,56.0,49.2,30.18,West,270,0.0,3.0,78,0.00,,,0.00,Weather View 32 v70,2013-03-20 16:46:00,
2013-03-20 12:51:00,56.0,49.2,30.18,NW,315,0.0,3.0,78,0.00,,,0.00,Weather View 32 v70,2013-03-20 16:51:00,
2013-03-20 12:56:00,56.0,49.2,30.18,NW,315,0.0,3.0,78,0.00,,,0.00,Weather View 32 v70,2013-03-20 16:56:00,
2013-03-20 13:01:00,56.0,49.2,30.18,South,180,0.0,3.0,78,0.00,,,0.00,Weather View 32 v70,2013-03-20 17:01:00,
2013-03-20 13:06:00,56.0,49.2,30.18,South,180,0.0,3.0,78,0.00,,,0.00,Weather View 32 v70,2013-03-20 17:06:00,
2013-03-20 13:15:00,56.0,49.2,30.17,NW,315,0.0,0.0,78,0.00,,,0.00,Weather View 32 v70,2013-03-20 17:15:00,
2013-03-20 13:20:00,56.0,49.2,30.17,South,180,0.0,0.0,78,0.00,,,0.00,Weather View 32 v70,2013-03-20 17:20:00,
2013-03-20 13:25:00,57.0,50.2,30.15,East,90,0.0,3.0,78,0.00,,,0.00,Weather View 32 v70,2013-03-20 17:25:00,
2013-03-20 13:30:00,57.0,50.2,30.15,SW,225,0.0,3.0,78,0.00,,,0.00,Weather View 32 v70,2013-03-20 17:30:00,
2013-03-20 13:35:00,57.0,50.2,30.15,West,270,0.0,3.0,78,0.00,,,0.00,Weather View 32 v70,2013-03-20 17:35:00,
2013-03-20 13:40:00,57.0,50.2,30.15,West,270,0.0,5.0,78,0.00,,,0.00,Weather View 32 v70,2013-03-20 17:40:00,
2013-03-20 13:45:00,58.0,51.2,30.14,East,90,0.0,5.0,78,0.00,,,0.00,Weather View 32 v70,2013-03-20 17:45:00,
2013-03-20 13:51:00,58.0,51.2,30.14,East,90,0.0,5.0,78,0.00,,,0.00,Weather View 32 v70,2013-03-20 17:51:00,
2013-03-20 13:56:00,58.0,51.2,30.12,SE,135,0.0,5.0,78,0.00,,,0.00,Weather View 32 v70,2013-03-20 17:56:00,
2013-03-20 14:01:00,58.0,51.2,30.12,West,270,0.0,5.0,78,0.00,,,0.00,Weather View 32 v70,2013-03-20 18:01:00,
2013-03-20 14:06:00,59.0,52.5,30.10,SE,135,0.0,5.0,79,0.00,,,0.00,Weather View 32 v70,2013-03-20 18:06:00,
2013-03-20 14:11:00,59.0,52.5,30.10,NE,45,0.0,5.0,79,0.00,,,0.00,Weather View 32 v70,2013-03-20 18:11:00,
2013-03-20 14:20:00,60.0,53.5,30.10,NW,315,0.0,5.0,79,0.00,,,0.00,Weather View 32 v70,2013-03-20 18:20:00,
2013-03-20 14:25:00,60.0,53.5,30.08,East,90,0.0,5.0,79,0.00,,,0.00,Weather View 32 v70,2013-03-20 18:25:00,
2013-03-20 14:30:00,60.0,53.5,30.08,WNW,292,0.0,5.0,79,0.00,,,0.00,Weather View 32 v70,2013-03-20 18:30:00,
2013-03-20 14:35:00,61.0,54.4,30.07,South,180,0.0,5.0,79,0.00,,,0.00,Weather View 32 v70,2013-03-20 18:35:00,
2013-03-20 14:40:00,61.0,54.4,30.07,East,90,0.0,4.0,79,0.00,,,0.00,Weather View 32 v70,2013-03-20 18:40:00,
2013-03-20 14:45:00,61.0,54.4,30.06,East,90,0.0,4.0,79,0.00,,,0.00,Weather View 32 v70,2013-03-20 18:45:00,
2013-03-20 14:50:00,61.0,54.4,30.06,NE,45,0.0,4.0,79,0.00,,,0.00,Weather View 32 v70,2013-03-20 18:50:00,
2013-03-20 14:55:00,62.0,55.4,30.05,SE,135,0.0,4.0,79,0.00,,,0.00,Weather View 32 v70,2013-03-20 18:55:00,
2013-03-20 15:01:00,62.0,55.4,30.05,NE,45,0.0,7.0,79,0.00,,,0.00,Weather View 32 v70,2013-03-20 19:01:00,
2013-03-20 15:06:00,62.0,55.4,30.05,NW,315,0.0,7.0,79,0.00,,,0.00,Weather View 32 v70,2013-03-20 19:06:00,
2013-03-20 15:11:00,62.0,55.4,30.05,West,270,0.0,7.0,79,0.00,,,0.00,Weather View 32 v70,2013-03-20 19:11:00,
2013-03-20 15:16:00,62.0,55.4,30.04,SW,225,0.0,7.0,79,0.00,,,0.00,Weather View 32 v70,2013-03-20 19:16:00,
2013-03-20 15:21:00,61.0,54.4,30.04,SW,225,0.0,7.0,79,0.00,,,0.00,Weather View 32 v70,2013-03-20 19:21:00,
2013-03-20 15:26:00,62.0,55.4,30.03,West,270,2.0,7.0,79,0.00,,,0.00,Weather View 32 v70,2013-03-20 19:26:00,
2013-03-20 15:35:00,62.0,55.4,30.02,NW,315,0.0,7.0,79,0.00,,,0.00,Weather View 32 v70,2013-03-20 19:35:00,
2013-03-20 15:40:00,62.0,55.4,30.02,SW,225,0.0,8.0,79,0.00,,,0.00,Weather View 32 v70,2013-03-20 19:40:00,
2013-03-20 15:45:00,62.0,55.4,30.02,North,360,0.0,8.0,79,0.00,,,0.00,Weather View 32 v70,2013-03-20 19:45:00,
2013-03-20 15:51:00,62.0,55.4,30.02,West,270,0.0,8.0,79,0.00,,,0.00,Weather View 32 v70,2013-03-20 19:51:00,
2013-03-20 15:56:00,62.0,55.4,30.00,NW,315,0.0,8.0,79,0.00,,,0.00,Weather View 32 v70,2013-03-20 19:56:00,
2013-03-20 16:01:00,62.0,55.4,30.00,West,270,0.0,8.0,79,0.00,,,0.00,Weather View 32 v70,2013-03-20 20:01:00,
2013-03-20 16:06:00,61.0,54.4,30.00,NW,315,0.0,8.0,79,0.00,,,0.00,Weather View 32 v70,2013-03-20 20:06:00,
2013-03-20 16:11:00,61.0,54.4,30.00,South,180,0.0,8.0,79,0.00,,,0.00,Weather View 32 v70,2013-03-20 20:11:00,
2013-03-20 16:16:00,61.0,54.4,29.99,SE,135,0.0,8.0,79,0.00,,,0.00,Weather View 32 v70,2013-03-20 20:16:00,
2013-03-20 16:21:00,62.0,55.4,29.99,SE,135,0.0,8.0,79,0.00,,,0.00,Weather View 32 v70,2013-03-20 20:21:00,
2013-03-20 16:30:00,61.0,54.4,29.98,West,270,0.0,8.0,79,0.00,,,0.00,Weather View 32 v70,2013-03-20 20:30:00,
2013-03-20 16:35:00,61.0,54.4,29.97,NW,315,0.0,8.0,79,0.00,,,0.00,Weather View 32 v70,2013-03-20 20:35:00,
2013-03-20 16:40:00,61.0,54.4,29.97,West,270,0.0,8.0,79,0.00,,,0.00,Weather View 32 v70,2013-03-20 20:40:00,
2013-03-20 16:45:00,61.0,54.4,29.98,West,270,2.0,8.0,79,0.00,,,0.00,Weather View 32 v70,2013-03-20 20:45:00,
2013-03-20 16:50:00,61.0,54.4,29.98,SW,225,0.0,8.0,79,0.00,,,0.00,Weather View 32 v70,2013-03-20 20:50:00,
2013-03-20 16:55:00,61.0,54.4,29.97,West,270,0.0,8.0,79,0.00,,,0.00,Weather View 32 v70,2013-03-20 20:55:00,
2013-03-20 17:01:00,61.0,54.4,29.97,NE,45,0.0,8.0,79,0.00,,,0.00,Weather View 32 v70,2013-03-20 21:01:00,
2013-03-20 17:06:00,61.0,54.4,29.96,SW,225,0.0,8.0,79,0.00,,,0.00,Weather View 32 v70,2013-03-20 21:06:00,
2013-03-20 17:11:00,61.0,54.4,29.96,South,180,0.0,8.0,79,0.00,,,0.00,Weather View 32 v70,2013-03-20 21:11:00,
2013-03-20 17:16:00,60.0,53.5,29.97,West,270,0.0,8.0,79,0.00,,,0.00,Weather View 32 v70,2013-03-20 21:16:00,
2013-03-20 17:25:00,59.0,52.5,29.97,NNW,337,0.0,8.0,79,0.00,,,0.00,Weather View 32 v70,2013-03-20 21:25:00,
2013-03-20 17:30:00,59.0,52.5,29.97,East,90,0.0,8.0,79,0.00,,,0.00,Weather View 32 v70,2013-03-20 21:30:00,
2013-03-20 17:35:00,59.0,52.5,29.97,SW,225,0.0,8.0,79,0.00,,,0.00,Weather View 32 v70,2013-03-20 21:35:00,
2013-03-20 17:40:00,58.0,51.2,29.97,NW,315,0.0,8.0,78,0.00,,,0.00,Weather View 32 v70,2013-03-20 21:40:00,
2013-03-20 17:45:00,58.0,51.2,29.97,West,270,0.0,6.0,78,0.00,,,0.00,Weather View 32 v70,2013-03-20 21:45:00,
2013-03-20 17:50:00,57.0,50.2,29.97,NNW,337,0.0,6.0,78,0.00,,,0.00,Weather View 32 v70,2013-03-20 21:50:00,
2013-03-20 17:55:00,57.0,50.2,29.98,West,270,0.0,6.0,78,0.00,,,0.00,Weather View 32 v70,2013-03-20 21:55:00,
2013-03-20 18:00:00,57.0,50.2,29.98,WNW,292,0.0,6.0,78,0.00,,,0.00,Weather View 32 v70,2013-03-20 22:00:00,
2013-03-20 18:06:00,57.0,50.2,29.97,South,180,0.0,6.0,78,0.00,,,0.00,Weather View 32 v70,2013-03-20 22:06:00,
2013-03-20 18:11:00,56.0,49.2,29.97,SE,135,0.0,6.0,78,0.00,,,0.00,Weather View 32 v70,2013-03-20 22:11:00,
2013-03-20 18:16:00,56.0,49.2,29.97,West,270,0.0,6.0,78,0.00,,,0.00,Weather View 32 v70,2013-03-20 22:16:00,
2013-03-20 18:21:00,56.0,49.2,29.97,WNW,292,0.0,6.0,78,0.00,,,0.00,Weather View 32 v70,2013-03-20 22:21:00,
2013-03-20 18:26:00,56.0,49.2,29.98,NW,315,0.0,6.0,78,0.00,,,0.00,Weather View 32 v70,2013-03-20 22:26:00,
2013-03-20 18:31:00,56.0,49.2,29.98,East,90,0.0,6.0,78,0.00,,,0.00,Weather View 32 v70,2013-03-20 22:31:00,
2013-03-20 18:36:00,55.0,48.3,29.98,SE,135,0.0,6.0,78,0.00,,,0.00,Weather View 32 v70,2013-03-20 22:36:00,
2013-03-20 18:45:00,55.0,48.3,29.98,NNW,337,0.0,6.0,78,0.00,,,0.00,Weather View 32 v70,2013-03-20 22:45:00,
2013-03-20 18:50:00,55.0,48.3,29.98,NW,315,0.0,6.0,78,0.00,,,0.00,Weather View 32 v70,2013-03-20 22:50:00,
2013-03-20 18:55:00,54.0,47.3,29.98,NW,315,0.0,6.0,78,0.00,,,0.00,Weather View 32 v70,2013-03-20 22:55:00,
2013-03-20 19:00:00,54.0,47.3,29.98,WSW,247,0.0,6.0,78,0.00,,,0.00,Weather View 32 v70,2013-03-20 23:00:00,
2013-03-20 19:06:00,54.0,47.3,29.98,WSW,247,0.0,6.0,78,0.00,,,0.00,Weather View 32 v70,2013-03-20 23:06:00,
2013-03-20 19:11:00,54.0,47.3,29.98,WSW,247,0.0,6.0,78,0.00,,,0.00,Weather View 32 v70,2013-03-20 23:11:00,
2013-03-20 19:20:00,53.0,46.0,29.99,WSW,247,0.0,5.0,77,0.00,,,0.00,Weather View 32 v70,2013-03-20 23:20:00,
2013-03-20 19:25:00,53.0,46.0,29.98,WSW,247,0.0,4.0,77,0.00,,,0.00,Weather View 32 v70,2013-03-20 23:25:00,
2013-03-20 19:30:00,52.0,45.0,29.98,WSW,247,0.0,4.0,77,0.00,,,0.00,Weather View 32 v70,2013-03-20 23:30:00,
2013-03-20 19:35:00,52.0,45.0,29.98,WSW,247,0.0,4.0,77,0.00,,,0.00,Weather View 32 v70,2013-03-20 23:35:00,
2013-03-20 19:40:00,51.0,44.0,29.98,WSW,247,0.0,4.0,77,0.00,,,0.00,Weather View 32 v70,2013-03-20 23:40:00,
2013-03-20 19:45:00,51.0,44.0,29.98,WSW,247,0.0,2.0,77,0.00,,,0.00,Weather View 32 v70,2013-03-20 23:45:00,
2013-03-20 19:51:00,50.0,43.1,29.98,WSW,247,0.0,1.0,77,0.00,,,0.00,Weather View 32 v70,2013-03-20 23:51:00,
2013-03-20 19:56:00,50.0,43.1,29.99,WSW,247,0.0,0.0,77,0.00,,,0.00,Weather View 32 v70,2013-03-20 23:56:00,
2013-03-20 20:01:00,49.0,42.1,29.99,WSW,247,0.0,0.0,77,0.00,,,0.00,Weather View 32 v70,2013-03-21 00:01:00,
2013-03-20 20:06:00,49.0,42.1,29.99,WSW,247,0.0,0.0,77,0.00,,,0.00,Weather View 32 v70,2013-03-21 00:06:00,
2013-03-20 20:11:00,48.0,41.1,29.99,WSW,247,0.0,0.0,77,0.00,,,0.00,Weather View 32 v70,2013-03-21 00:11:00,
2013-03-20 20:21:00,47.0,39.8,29.99,WSW,247,0.0,0.0,76,0.00,,,0.00,Weather View 32 v70,2013-03-21 00:21:00,
2013-03-20 20:30:00,47.0,39.8,29.99,WSW,247,0.0,0.0,76,0.00,,,0.00,Weather View 32 v70,2013-03-21 00:30:00,
2013-03-20 20:35:00,46.0,38.8,29.99,WSW,247,0.0,0.0,76,0.00,,,0.00,Weather View 32 v70,2013-03-21 00:35:00,
2013-03-20 20:40:00,46.0,38.8,29.99,WSW,247,0.0,0.0,76,0.00,,,0.00,Weather View 32 v70,2013-03-21 00:40:00,
2013-03-20 20:45:00,45.0,37.9,29.99,WSW,247,0.0,0.0,76,0.00,,,0.00,Weather View 32 v70,2013-03-21 00:45:00,
2013-03-20 20:50:00,45.0,37.9,29.99,WSW,247,0.0,0.0,76,0.00,,,0.00,Weather View 32 v70,2013-03-21 00:50:00,
2013-03-20 20:56:00,45.0,37.9,29.99,WSW,247,0.0,0.0,76,0.00,,,0.00,Weather View 32 v70,2013-03-21 00:56:00,
2013-03-20 21:01:00,44.0,36.9,29.99,WSW,247,0.0,0.0,76,0.00,,,0.00,Weather View 32 v70,2013-03-21 01:01:00,
2013-03-20 21:06:00,44.0,36.9,30.00,WSW,247,0.0,0.0,76,0.00,,,0.00,Weather View 32 v70,2013-03-21 01:06:00,
2013-03-20 21:11:00,43.0,35.9,30.00,WSW,247,0.0,0.0,76,0.00,,,0.00,Weather View 32 v70,2013-03-21 01:11:00,
2013-03-20 21:16:00,43.0,35.9,29.99,WSW,247,0.0,0.0,76,0.00,,,0.00,Weather View 32 v70,2013-03-21 01:16:00,
2013-03-20 21:25:00,42.0,34.6,29.99,WSW,247,0.0,0.0,75,0.00,,,0.00,Weather View 32 v70,2013-03-21 01:25:00,
2013-03-20 21:30:00,42.0,34.6,29.99,WSW,247,0.0,0.0,75,0.00,,,0.00,Weather View 32 v70,2013-03-21 01:30:00,
2013-03-20 21:35:00,42.0,34.6,30.00,WSW,247,0.0,0.0,75,0.00,,,0.00,Weather View 32 v70,2013-03-21 01:35:00,
2013-03-20 21:40:00,42.0,34.6,30.00,WSW,247,0.0,0.0,75,0.00,,,0.00,Weather View 32 v70,2013-03-21 01:40:00,
2013-03-20 21:45:00,41.0,33.7,30.00,WSW,247,0.0,0.0,75,0.00,,,0.00,Weather View 32 v70,2013-03-21 01:45:00,
2013-03-20 21:50:00,41.0,33.7,30.00,WSW,247,0.0,0.0,75,0.00,,,0.00,Weather View 32 v70,2013-03-21 01:50:00,
2013-03-20 21:55:00,41.0,33.7,30.00,WSW,247,0.0,0.0,75,0.00,,,0.00,Weather View 32 v70,2013-03-21 01:55:00,
2013-03-20 22:01:00,41.0,33.7,30.00,WSW,247,0.0,0.0,75,0.00,,,0.00,Weather View 32 v70,2013-03-21 02:01:00,
2013-03-20 22:06:00,40.0,32.7,30.00,WSW,247,0.0,0.0,75,0.00,,,0.00,Weather View 32 v70,2013-03-21 02:06:00,
2013-03-20 22:11:00,40.0,32.7,30.00,WSW,247,0.0,0.0,75,0.00,,,0.00,Weather View 32 v70,2013-03-21 02:11:00,
2013-03-20 22:16:00,40.0,32.7,29.99,WSW,247,0.0,0.0,75,0.00,,,0.00,Weather View 32 v70,2013-03-21 02:16:00,
2013-03-20 22:21:00,40.0,32.7,29.99,WSW,247,0.0,0.0,75,0.00,,,0.00,Weather View 32 v70,2013-03-21 02:21:00,
2013-03-20 22:26:00,40.0,32.7,30.00,WSW,247,0.0,0.0,75,0.00,,,0.00,Weather View 32 v70,2013-03-21 02:26:00,
2013-03-20 22:35:00,39.0,31.7,30.00,WSW,247,0.0,0.0,75,0.00,,,0.00,Weather View 32 v70,2013-03-21 02:35:00,
2013-03-20 22:40:00,39.0,31.7,30.00,WSW,247,0.0,0.0,75,0.00,,,0.00,Weather View 32 v70,2013-03-21 02:40:00,
2013-03-20 22:45:00,39.0,31.7,30.00,WSW,247,0.0,0.0,75,0.00,,,0.00,Weather View 32 v70,2013-03-21 02:45:00,
2013-03-20 22:50:00,38.0,30.8,30.00,WSW,247,0.0,0.0,75,0.00,,,0.00,Weather View 32 v70,2013-03-21 02:50:00,
2013-03-20 22:55:00,38.0,30.8,30.00,WSW,247,0.0,0.0,75,0.00,,,0.00,Weather View 32 v70,2013-03-21 02:55:00,
2013-03-20 23:00:00,38.0,30.8,30.00,WSW,247,0.0,0.0,75,0.00,,,0.00,Weather View 32 v70,2013-03-21 03:00:00,
2013-03-20 23:05:00,38.0,30.8,29.99,WSW,247,0.0,0.0,75,0.00,,,0.00,Weather View 32 v70,2013-03-21 03:05:00,
2013-03-20 23:10:00,37.0,30.1,29.99,WSW,247,0.0,0.0,76,0.00,,,0.00,Weather View 32 v70,2013-03-21 03:10:00,
2013-03-20 23:16:00,37.0,30.1,29.99,WSW,247,0.0,0.0,76,0.00,,,0.00,Weather View 32 v70,2013-03-21 03:16:00,
2013-03-20 23:21:00,37.0,30.1,29.99,WSW,247,0.0,0.0,76,0.00,,,0.00,Weather View 32 v70,2013-03-21 03:21:00,
2013-03-20 23:26:00,37.0,30.1,29.98,WSW,247,0.0,0.0,76,0.00,,,0.00,Weather View 32 v70,2013-03-21 03:26:00,
2013-03-20 23:31:00,37.0,30.1,29.98,WSW,247,0.0,0.0,76,0.00,,,0.00,Weather View 32 v70,2013-03-21 03:31:00,
2013-03-20 23:36:00,37.0,30.1,29.98,WSW,247,0.0,0.0,76,0.00,,,0.00,Weather View 32 v70,2013-03-21 03:36:00,
2013-03-20 23:41:00,37.0,30.1,29.98,WSW,247,0.0,0.0,76,0.00,,,0.00,Weather View 32 v70,2013-03-21 03:41:00,
2013-03-20 23:46:00,37.0,30.1,29.98,WSW,247,0.0,0.0,76,0.00,,,0.00,Weather View 32 v70,2013-03-21 03:46:00,
2013-03-20 23:51:00,37.0,30.1,29.98,WSW,247,0.0,0.0,76,0.00,,,0.00,Weather View 32 v70,2013-03-21 03:51:00,